Back to catalog

STARLINK-33991

AliveCommunicationsVLEO
NORAD 64122·PAYLOAD·🇺🇸 United States

Launched May 23, 2025 from Vandenberg Space Force Base

Loading…

Next Passes (next 24 hours)

TLE

FreshSource: CelesTrak SupGP

Epoch: Sep 15, 2026, 03:02 UTC

1 64122C 25110AC  26258.12687500 -.00049038  00000+0 -15769-2 0  2589
2 64122  53.1575 225.0969 0001464  94.1218 163.2312 15.31726305    18

Track STARLINK-33991 in real time with AllMySat

Download on the App Store